Regional Weather Roundup
Issued by NWS

Home | Current Version | Previous Version | Graphics & Text | Print | Product List | Glossary On
Versions: 1 2 3 4 5 6 7 8 9 10 11 12 13 14 15 16 17 18 19 20 21 22 23 24 25 26 27 28 29 30 31 32 33 34 35 36 37 38 39 40 41 42 43 44 45 46 47 48 49 50
000
ASUS45 KABQ 150801
RWRNM
NEW MEXICO REGIONAL WEATHER ROUNDUP
NATIONAL WEATHER SERVICE ALBUQUERQUE NM
100 AM MST FRI DEC 15 2017

NOTE: "FAIR" MEANS FEW OR NO CLOUDS BELOW 12,000 FEET AGL WITH NO
       SIGNIFICANT WEATHER OR OBSTRUCTIONS TO VISION.

      THIS PRODUCT IS RELEASED AS TWO VERSIONS.  ONE VERSION NEAR
      THE TOP OF THE HOUR CONTAINING PRELIMINARY DATA FROM ALBUQUERQUE
      AND OTHER STATIONS.  A FINAL VERSION WITH ADDITIONAL DATA IS
      ISSUED ABOUT 10 MINUTES AFTER THE HOUR.

NMZ501-503-504-510>518-150900-
NORTHWEST PLATEAU/NORTHCENTRAL MOUNTAINS

CITY           SKY/WX    TMP DP  RH WIND       PRES   REMARKS
FARMINGTON     FAIR      20  14  77 E6        30.29S WCI  12
LOS ALAMOS     FAIR      27  15  62 S8        30.30R WCI  18
SANTA FE       FAIR      21  15  78 E3        30.30S
TAOS           FAIR      14   9  80 NW6       30.32S WCI   5
ANGEL FIRE     FAIR      13  10  85 NE6       30.27S WCI   4

$$
NMZ402-403-502-505>509-150900-
WESTCENTRAL MOUNTAINS/SOUTHWEST MOUNTAINS

CITY           SKY/WX    TMP DP  RH WIND       PRES   REMARKS
GALLUP         FAIR      12   7  80 W6        30.30S WCI   3
GRANTS         FAIR      15  11  84 NW7       30.33R WCI   6
SILVER CITY    FAIR      25  10  52 N9        30.25R WCI  15

$$
NMZ407-409-411-412-150900-
SOUTHERN DESERTS

CITY           SKY/WX    TMP DP  RH WIND       PRES   REMARKS
DEMING         FAIR      34  14  43 E8        30.26R WCI  27
LAS CRUCES     FAIR      35  15  45 NW7       30.26R WCI  29
HOLLOMAN AFB   FAIR      28  13  54 CALM      30.29R
ALAMOGORDO     FAIR      28  16  59 SE8       30.27S WCI  20
T OR C         FAIR      36  15  42 N6        30.26F WCI  31

$$
NMZ519>523-150900-
CENTRAL VALLEYS/CENTRAL HIGHLANDS

CITY           SKY/WX    TMP DP  RH WIND       PRES   REMARKS
ALBUQUERQUE    FAIR      31  15  52 NW7       30.31R WCI  24
MORIARTY ARPT  FAIR       9   3  77 CALM      30.33S
CLINES CORNERS FAIR      18  14  84 S7        30.29F WCI   9
BELEN          FAIR      22  10  61 W7        30.30S WCI  13
SOCORRO        FAIR      27  13  56 N6        30.30S WCI  20

$$
NMZ524>526-539-540-150900-
SOUTHCENTRAL MOUNTAINS

CITY           SKY/WX    TMP DP  RH WIND       PRES   REMARKS
RUIDOSO        FAIR      25  14  63 S6        30.31F WCI  18

$$
NMZ527>531-150900-
NORTHEAST HIGHLANDS/NORTHEAST PLAINS

CITY           SKY/WX    TMP DP  RH WIND       PRES   REMARKS
LAS VEGAS      FAIR      17  14  88 SW8       30.27F WCI   7
RATON          FAIR      16  12  84 NE6       30.25F WCI   7
CLAYTON        FAIR      22  19  89 W9        30.26F WCI  12

$$
NMZ532>537-150900-
EASTCENTRAL PLAINS

CITY           SKY/WX    TMP DP  RH WIND       PRES   REMARKS
SANTA ROSA       N/A     25  21  85 CALM      30.32S
TUCUMCARI      FAIR      27  24  89 W5        30.30F WCI  22
CANNON AFB     CLEAR     29  28  99 N6        30.32F WCI  22
CLOVIS AIRPORT FAIR      28  24  85 NW7       30.31F WCI  21

$$
NMZ028-029-538-150900-
SOUTHEAST PLAINS

CITY           SKY/WX    TMP DP  RH WIND       PRES   REMARKS
ROSWELL        FAIR      32  21  64 NW6       30.33S WCI  26
ARTESIA        FAIR      30  16  55 NW10      30.34S WCI  21
CARLSBAD       FAIR      28  22  78 W5        30.32S WCI  23
HOBBS          CLOUDY    36  25  64 NE8       30.31S WCI  29


$$




USA.gov is the U.S. government's official web portal to all federal, state and local government web resources and services.